GORIZONT 19 [-]

Last updated on Jan. 23, 2021, 7:21 a.m. UTC

1 20263U 89081A   21022.93281646 -.00000362  00000-0  00000-0 0  9997
2 20263  14.1584 348.5897 0002904 314.5898 269.0738  1.00272153 27572
UTC
Height (km)
Latitude
Longitude
Inclination
Orbital Period
UTC large
Height (km)
Speed (km/s)
/
Latitude / Longitude
Inclination (degrees)
Orbital Period (minutes)
Azimuth
Elevation
Range (km)
Doppler Factor
iOS Compass Heading
iOS Angle

Next 30 passes for location: Hong Kong

Rise time Rise Azimuth (degrees) Set time Set Azimuth (degrees) Duration Max altitude (degrees)

No matching passes for this satellites